Weather reports worldwide

Advertisment
München-Stadt, Germany (10865): temperature & dewpoint: 12.02.2020 10:00:00 - 18.02.2020 10:00:00 (CET)München-Stadt, Germany (10865): temperature 5cm & temperature -5cm: 12.02.2020 10:00:00 - 18.02.2020 10:00:00 (CET)München-Stadt, Germany (10865): temperature -20cm & temperature -100cm: 12.02.2020 10:00:00 - 18.02.2020 10:00:00 (CET)München-Stadt, Germany (10865): wind speed & gusts: 12.02.2020 10:00:00 - 18.02.2020 10:00:00 (CET)München-Stadt, Germany (10865): wind direction: 12.02.2020 10:00:00 - 18.02.2020 10:00:00 (CET)München-Stadt, Germany (10865): reduced air pressure: 12.02.2020 10:00:00 - 18.02.2020 10:00:00 (CET)München-Stadt, Germany (10865): visibility: 12.02.2020 10:00:00 - 18.02.2020 10:00:00 (CET)München-Stadt, Germany (10865): sunshine duration: 12.02.2020 10:00:00 - 18.02.2020 10:00:00 (CET)München-Stadt, Germany (10865): precipitation: 12.02.2020 10:00:00 - 18.02.2020 10:00:00 (CET)
Date & Time tt [°C] td [°C] tt 5cm [°C] tt -5cm [°C] tt -20cm [°C] tt -100cm [°C] ff [km/h] ff [kn] fx [km/h] fx [kn] dd ppp [hPa] vv [km] sd [min] rr [mm]
18.02.2020 10:00:00 - - - - - - - - - - - - - - -
18.02.2020 09:00:00 6,1 -1,3 5,4 3,7 5,7 5,7 22 12 39 21 WSW 1028,7 56 1 0,0
18.02.2020 08:00:00 5,5 -1,0 3,8 3,5 5,8 5,7 22 12 48 26 W 1028,2 65 4 0,0
18.02.2020 07:00:00 5,4 -0,7 4,3 3,7 5,9 5,7 15 8 29 16 WSW 1027,6 58 0 0,0
18.02.2020 06:00:00 5,0 -0,2 3,9 3,8 6,1 5,6 17 9 34 18 WSW 1027,7 58 0 0,0
18.02.2020 05:00:00 5,2 -0,4 3,6 3,9 6,2 5,6 18 10 44 24 WSW 1027,3 70 0 0,0
18.02.2020 04:00:00 5,8 0,1 4,4 4,5 6,3 5,6 27 15 46 25 W 1026,5 74 0 0,0
18.02.2020 03:00:00 6,4 0,5 4,9 5,2 6,4 5,6 29 16 54 29 W 1025,9 75 0 0,0
18.02.2020 02:00:00 7,2 1,4 6,1 5,6 6,5 5,6 19 10 41 22 WSW 1024,8 75 0 0,0
18.02.2020 01:00:00 7,2 1,9 6,1 5,8 6,6 5,6 18 10 42 23 W 1024,8 60 0 0,0
18.02.2020 00:00:00 7,4 2,5 6,4 6,2 6,7 5,6 18 10 42 23 W 1024,1 75 0 0,0
17.02.2020 23:00:00 7,8 2,8 6,9 6,5 6,7 5,6 26 14 52 28 W 1023,6 68 0 0,0
17.02.2020 22:00:00 8,1 3,6 6,8 6,7 6,8 5,6 27 15 49 26 W 1022,9 62 0 0,0
17.02.2020 21:00:00 8,4 4,0 7,3 7,1 6,8 5,6 24 13 40 22 W 1022,0 67 0 0,0
17.02.2020 20:00:00 8,7 3,5 7,7 7,3 6,9 5,6 23 12 43 23 W 1021,5 75 0 0,0
17.02.2020 19:00:00 8,8 5,3 7,8 7,9 6,8 5,6 24 13 41 22 W 1020,5 70 0 0,1
17.02.2020 18:00:00 8,2 6,5 7,1 8,3 6,8 5,6 12 6 26 14 W 1020,6 29 0 0,5
17.02.2020 17:00:00 8,6 6,4 7,6 9,0 6,6 5,6 14 7 41 22 NNW 1020,2 25 0 0,1
17.02.2020 16:00:00 12,3 5,7 11,5 10,0 6,4 5,5 13 7 21 11 NNW 1018,1 52 0 0,0
17.02.2020 15:00:00 13,7 5,3 13,1 11,3 6,1 5,5 8 4 13 7 NNW 1017,0 50 0 0,0
17.02.2020 14:00:00 14,1 3,8 15,1 12,8 5,8 5,5 3 2 12 6 SSE 1016,9 63 42 0,0
17.02.2020 13:00:00 13,6 4,3 16,0 11,7 5,6 5,5 7 4 16 9 SSE 1017,4 50 37 0,0
17.02.2020 12:00:00 12,4 4,6 13,8 10,6 5,4 5,5 8 5 17 9 E 1018,2 75 44 0,0
17.02.2020 11:00:00 12,3 5,0 15,0 8,2 5,4 5,5 8 4 18 10 E 1018,6 49 60 0,0
17.02.2020 10:00:00 10,7 5,0 10,3 6,3 5,4 5,5 9 5 16 9 NE 1019,0 43 28 0,0
17.02.2020 09:00:00 10,5 3,9 8,6 5,7 5,4 5,5 10 5 23 13 NNE 1019,2 75 0 0,0
17.02.2020 08:00:00 13,2 4,0 10,0 5,8 5,4 5,5 8 4 35 19 W 1017,6 61 0 0,0
17.02.2020 07:00:00 13,7 3,6 11,1 5,8 5,4 5,5 22 12 33 18 W 1017,1 67 0 0,0
17.02.2020 06:00:00 13,9 2,4 11,4 5,9 5,4 5,5 18 10 32 17 WSW 1017,3 65 0 0,0
17.02.2020 05:00:00 14,5 0,5 11,7 5,7 5,4 5,5 18 10 36 19 WSW 1016,9 74 0 0,0
17.02.2020 04:00:00 14,0 -1,7 11,1 5,5 5,4 5,5 14 8 26 14 WSW 1016,5 73 0 0,0
17.02.2020 03:00:00 14,2 -2,5 11,0 5,6 5,4 5,5 13 7 23 12 WSW 1016,1 75 0 0,0
17.02.2020 02:00:00 14,5 -2,4 11,1 5,7 5,5 5,5 12 6 24 13 SW 1015,2 74 0 0,0
17.02.2020 01:00:00 14,5 -2,1 12,2 5,7 5,5 5,5 13 7 24 13 SSW 1015,5 67 0 0,0
17.02.2020 00:00:00 14,1 -2,4 11,8 5,6 5,6 5,5 14 8 29 16 SSW 1015,5 69 0 0,0
16.02.2020 23:00:00 12,8 -1,3 10,3 5,3 5,6 5,5 16 9 24 13 SSW 1015,7 75 0 0,0
16.02.2020 22:00:00 10,8 -0,4 7,5 5,3 5,7 5,5 9 5 16 9 S 1015,8 58 0 0,0
16.02.2020 21:00:00 11,3 0,1 7,2 5,5 5,7 5,5 9 5 13 7 S 1016,1 51 0 0,0
16.02.2020 20:00:00 11,2 0,6 7,1 5,9 5,7 5,5 8 4 11 6 SSW 1016,5 55 0 0,0
16.02.2020 19:00:00 12,7 0,2 8,6 6,7 5,6 5,5 9 5 23 12 W 1016,2 64 0 0,0
16.02.2020 18:00:00 14,2 1,1 10,9 7,7 5,4 5,5 9 5 21 11 SSE 1015,1 72 1 0,0
16.02.2020 17:00:00 15,8 -0,2 13,4 8,9 5,2 5,5 13 7 24 13 SSE 1014,9 67 5 0,0
16.02.2020 16:00:00 16,5 -4,0 15,0 9,5 4,9 5,4 16 9 27 15 SSE 1015,5 56 0 0,0
16.02.2020 15:00:00 16,8 -5,1 15,9 10,1 4,6 5,4 13 7 30 16 SSE 1016,4 61 11 0,0
16.02.2020 14:00:00 16,8 -3,0 17,8 10,0 4,3 5,4 9 5 14 7 SE 1017,4 64 7 0,0
16.02.2020 13:00:00 15,0 -2,2 14,9 9,2 4,0 5,4 7 4 11 6 SSE 1018,8 73 10 0,0
16.02.2020 12:00:00 14,2 -2,2 16,5 8,0 3,9 5,4 2 1 11 6 NE 1019,6 63 17 0,0
16.02.2020 11:00:00 11,7 -3,0 13,7 5,2 3,8 5,4 3 2 11 6 SSE 1020,2 47 38 0,0
16.02.2020 10:00:00 9,6 -3,1 8,4 3,8 3,9 5,4 5 3 11 6 S 1020,7 66 0 0,0
16.02.2020 09:00:00 8,4 -3,8 6,9 2,8 3,9 5,4 7 4 20 11 S 1021,1 62 20 0,0
16.02.2020 08:00:00 7,8 -4,3 6,2 2,1 4,0 5,4 11 6 18 10 S 1021,4 75 8 0,0
16.02.2020 07:00:00 7,2 -4,1 4,9 1,9 4,1 5,4 12 6 22 12 S 1021,5 75 0 0,0
16.02.2020 06:00:00 6,4 -3,6 4,1 2,0 4,2 5,4 12 6 19 10 S 1021,3 70 0 0,0
16.02.2020 05:00:00 6,6 -3,8 4,3 2,0 4,3 5,4 10 6 22 12 S 1021,9 70 0 0,0
16.02.2020 04:00:00 7,0 -3,8 4,2 2,3 4,4 5,4 13 7 20 11 S 1022,3 69 0 0,0
16.02.2020 03:00:00 7,0 -3,6 4,6 2,6 4,5 5,4 9 5 18 10 S 1023,1 75 0 0,0
16.02.2020 02:00:00 7,6 -3,7 5,7 2,8 4,6 5,4 10 6 20 11 SSW 1023,2 75 0 0,0
16.02.2020 01:00:00 7,0 -3,1 5,0 2,8 4,8 5,4 13 7 24 13 S 1023,1 63 0 0,0
16.02.2020 00:00:00 5,6 -2,1 3,8 2,7 4,9 5,4 9 5 18 10 S 1023,5 59 0 0,0
15.02.2020 23:00:00 5,6 -1,4 2,6 2,8 5,0 5,4 9 5 14 7 S 1023,5 65 0 0,0
15.02.2020 22:00:00 6,2 -1,2 2,6 3,2 5,2 5,4 7 4 17 9 S 1023,6 72 0 0,0
15.02.2020 21:00:00 6,7 -0,7 4,5 3,7 5,2 5,4 10 5 17 9 SSW 1023,5 58 0 0,0
15.02.2020 20:00:00 7,2 0,5 4,4 4,4 5,3 5,4 7 4 18 10 S 1023,4 58 0 0,0
15.02.2020 19:00:00 8,3 0,6 4,7 5,2 5,2 5,4 9 5 18 10 SSE 1023,4 54 0 0,0
15.02.2020 18:00:00 9,5 -1,5 5,7 6,6 5,0 5,4 7 4 17 9 SSE 1022,6 60 37 0,0
15.02.2020 17:00:00 11,2 -2,1 8,5 8,4 4,7 5,4 8 4 13 7 SSE 1022,5 67 51 0,0
15.02.2020 16:00:00 11,7 -2,7 12,5 10,1 4,4 5,4 7 4 13 7 SSW 1023,1 65 60 0,0
15.02.2020 15:00:00 11,1 -1,0 13,2 10,5 4,0 5,4 4 2 13 7 SW 1023,8 62 60 0,0
15.02.2020 14:00:00 10,2 -0,7 13,0 10,3 3,7 5,4 5 3 12 6 W 1024,6 50 60 0,0
15.02.2020 13:00:00 9,0 -2,6 13,2 8,7 3,5 5,4 5 3 13 7 WSW 1025,0 52 60 0,0
15.02.2020 12:00:00 7,6 -0,7 10,3 5,9 3,4 5,4 5 3 16 8 W 1026,3 75 56 0,0
15.02.2020 11:00:00 5,4 -0,1 6,0 3,4 3,5 5,4 8 5 16 9 ESE 1026,3 49 14 0,0
15.02.2020 10:00:00 5,1 0,1 4,6 1,9 3,5 5,4 8 5 14 8 ESE 1026,4 54 13 0,0
15.02.2020 09:00:00 3,0 0,6 1,2 1,0 3,6 5,4 8 5 12 7 SE 1026,9 62 31 0,0
15.02.2020 08:00:00 1,0 -0,5 -1,3 1,0 3,8 5,4 4 2 12 7 SE 1027,4 59 3 0,0
15.02.2020 07:00:00 1,8 0,1 -0,8 1,0 3,9 5,3 9 5 14 7 SE 1026,9 56 0 0,0
15.02.2020 06:00:00 2,3 0,3 -0,2 1,1 4,0 5,3 9 5 14 8 SSE 1027,3 72 0 0,0
15.02.2020 05:00:00 2,4 0,8 -1,2 1,3 4,2 5,3 6 3 11 6 SSE 1027,9 58 0 0,0
15.02.2020 04:00:00 2,7 0,9 -0,3 1,6 4,3 5,3 5 3 11 6 SSE 1028,3 52 0 0,0
15.02.2020 03:00:00 2,4 0,7 -0,4 2,0 4,4 5,3 5 3 13 7 SSE 1029,2 52 0 0,0
15.02.2020 02:00:00 4,4 1,7 2,5 2,6 4,5 5,3 7 4 12 6 SSW 1029,5 61 0 0,0
15.02.2020 01:00:00 4,9 2,2 3,2 3,0 4,6 5,3 6 3 10 6 S 1029,4 48 0 0,0
15.02.2020 00:00:00 4,9 2,0 3,1 3,3 4,6 5,3 7 4 12 6 WSW 1029,1 57 0 0,0
14.02.2020 23:00:00 5,1 1,8 3,0 3,7 4,7 5,3 8 4 14 8 WSW 1028,7 56 0 0,0
14.02.2020 22:00:00 5,6 1,6 4,6 3,9 4,7 5,3 7 4 18 10 SW 1028,7 67 0 0,0
14.02.2020 21:00:00 5,8 1,0 4,4 4,3 4,7 5,3 10 6 27 15 W 1028,3 58 0 0,0
14.02.2020 20:00:00 6,4 0,5 5,4 4,7 4,7 5,3 13 7 24 13 W 1027,6 57 0 0,0
14.02.2020 19:00:00 6,0 2,9 5,0 4,9 4,7 5,3 10 5 23 13 WSW 1026,9 60 0 0,0
14.02.2020 18:00:00 6,4 2,4 5,6 5,3 4,6 5,3 12 6 19 10 WSW 1025,6 75 0 0,0
14.02.2020 17:00:00 6,7 2,2 6,1 5,8 4,5 5,3 11 6 26 14 WSW 1024,9 67 0 0,0
14.02.2020 16:00:00 7,3 1,7 6,8 6,4 4,3 5,3 11 6 32 17 WNW 1024,3 57 1 0,0
14.02.2020 15:00:00 7,6 0,3 7,8 6,9 4,2 5,3 21 11 42 23 WNW 1023,5 69 7 0,0
14.02.2020 14:00:00 7,6 0,8 8,3 6,9 4,0 5,3 18 10 44 24 NW 1023,4 64 13 0,0
14.02.2020 13:00:00 7,3 0,6 8,2 5,8 4,0 5,3 23 12 49 26 W 1023,4 68 4 0,0
14.02.2020 12:00:00 6,5 1,3 6,4 4,5 3,9 5,3 21 11 45 25 W 1023,4 67 0 0,0
14.02.2020 11:00:00 6,1 1,3 5,9 4,4 3,9 5,3 22 12 42 23 W 1022,3 60 0 0,0
14.02.2020 10:00:00 5,7 1,8 5,6 4,0 3,9 5,3 20 11 42 23 W 1021,1 57 0 0,0
14.02.2020 09:00:00 5,4 1,6 4,9 3,5 3,9 5,3 25 13 44 24 W 1020,1 70 0 0,0
14.02.2020 08:00:00 5,0 1,7 4,1 3,2 3,9 5,3 25 13 47 25 W 1018,5 70 0 0,0
14.02.2020 07:00:00 4,9 1,8 3,8 3,3 4,0 5,3 25 13 49 27 W 1016,9 73 0 0,0
14.02.2020 06:00:00 5,2 1,5 4,3 3,2 4,0 5,3 29 16 54 29 W 1015,5 74 0 0,0
14.02.2020 05:00:00 5,4 1,2 4,1 3,0 4,1 5,3 32 17 68 37 W 1013,6 75 0 0,0
14.02.2020 04:00:00 5,0 1,7 3,9 3,1 4,1 5,3 26 14 55 30 W 1012,7 75 0 0,0
14.02.2020 03:00:00 4,9 1,2 3,3 3,1 4,2 5,3 24 13 45 25 WSW 1012,6 70 0 0,0
14.02.2020 02:00:00 5,0 1,0 3,1 3,5 4,2 5,3 24 13 50 27 WSW 1011,6 75 0 0,0
14.02.2020 01:00:00 5,2 1,7 3,5 3,9 4,2 5,4 26 14 47 25 WSW 1010,5 71 0 0,1
14.02.2020 00:00:00 5,3 2,7 3,8 4,0 4,2 5,4 16 9 36 19 WSW 1009,8 29 0 0,5
13.02.2020 23:00:00 5,3 2,0 3,7 3,9 4,3 5,4 18 10 45 24 SW 1010,0 72 0 0,0
13.02.2020 22:00:00 4,9 2,0 3,3 4,0 4,3 5,4 26 14 61 33 SW 1010,0 75 0 0,5
13.02.2020 21:00:00 4,6 2,2 3,4 4,6 4,2 5,4 44 24 81 44 WSW 1010,6 9 0 3,4
13.02.2020 20:00:00 8,4 -0,5 7,0 4,7 4,2 5,4 9 5 21 11 S 1005,9 52 0 0,0
13.02.2020 19:00:00 8,1 -0,8 6,7 5,0 4,1 5,4 8 4 13 7 SE 1005,8 48 0 0,0
13.02.2020 18:00:00 8,1 -1,7 6,4 5,3 3,9 5,4 6 3 13 7 E 1005,8 57 0 0,0
13.02.2020 17:00:00 8,7 -2,2 7,4 5,9 3,7 5,4 5 3 22 12 SE 1006,6 59 0 0,0
13.02.2020 16:00:00 9,6 -3,2 9,1 6,8 3,5 5,4 14 8 25 13 SE 1007,1 60 12 0,0
13.02.2020 15:00:00 9,3 -2,9 9,9 6,8 3,2 5,4 15 8 26 14 SE 1008,4 75 0 0,0
13.02.2020 14:00:00 9,5 -3,9 10,4 7,4 2,9 5,4 10 5 22 12 SE 1010,8 68 19 0,0
13.02.2020 13:00:00 8,6 -5,3 11,5 7,4 2,7 5,4 14 8 24 13 SSE 1012,4 65 60 0,0
13.02.2020 12:00:00 7,4 -4,9 11,0 4,7 2,7 5,4 14 7 26 14 SE 1014,3 72 60 0,0
13.02.2020 11:00:00 4,9 -4,5 5,7 1,7 2,7 5,4 18 10 29 15 SE 1016,3 50 45 0,0
13.02.2020 10:00:00 3,3 -3,1 2,8 0,8 2,8 5,4 14 8 22 12 SE 1017,5 55 21 0,0
13.02.2020 09:00:00 2,3 -2,8 1,4 0,7 2,8 5,4 11 6 18 10 SSE 1019,0 51 0 0,0
13.02.2020 08:00:00 1,1 -2,3 -1,5 0,7 2,9 5,4 7 4 12 6 SE 1019,9 51 0 0,0
13.02.2020 07:00:00 1,4 -2,6 -0,8 0,7 2,9 5,4 5 3 11 6 S 1020,1 55 0 0,0
13.02.2020 06:00:00 1,9 -2,3 -0,4 0,7 3,0 5,4 8 4 13 7 S 1020,5 62 0 0,0
13.02.2020 05:00:00 2,6 -2,3 0,5 0,6 3,1 5,4 8 5 16 9 SSW 1020,7 60 0 0,0
13.02.2020 04:00:00 3,1 -1,8 1,1 1,1 3,1 5,4 9 5 19 10 SW 1021,8 59 0 0,0
13.02.2020 03:00:00 2,9 -0,8 0,8 1,2 3,2 5,4 10 5 16 9 SSW 1022,7 56 0 0,0
13.02.2020 02:00:00 2,5 -0,3 0,6 1,2 3,2 5,4 9 5 15 8 SW 1023,4 50 0 0,0
13.02.2020 01:00:00 2,1 0,1 0,5 1,5 3,3 5,4 9 5 22 12 W 1023,6 52 0 0,0
13.02.2020 00:00:00 2,5 -0,1 1,0 1,8 3,3 5,4 12 7 52 28 W 1023,3 65 0 0,3
12.02.2020 23:00:00 1,8 -0,1 1,0 1,9 3,3 5,4 16 9 44 24 NW 1023,5 57 0 0,0
12.02.2020 22:00:00 3,5 -1,0 1,4 2,0 3,4 5,4 16 9 39 21 W 1022,4 66 0 0,1
12.02.2020 21:00:00 3,9 -1,7 2,9 2,0 3,4 5,4 17 9 36 20 WSW 1022,2 55 0 0,0
12.02.2020 20:00:00 4,0 -1,8 2,7 2,0 3,4 5,4 18 10 49 26 WSW 1021,9 52 0 0,0
12.02.2020 19:00:00 4,2 -1,1 2,4 2,4 3,4 5,4 16 9 49 26 WSW 1021,3 56 0 0,1
12.02.2020 18:00:00 4,2 -0,8 2,8 2,7 3,3 5,4 23 13 46 25 W 1020,4 49 0 0,0
12.02.2020 17:00:00 3,7 -0,5 2,4 2,9 3,3 5,4 20 11 55 30 WSW 1020,2 71 0 0,0
12.02.2020 16:00:00 4,7 -1,2 4,3 3,3 3,2 5,4 23 12 46 25 WSW 1019,5 59 0 0,0
12.02.2020 15:00:00 4,7 -2,0 4,6 3,2 3,1 5,4 21 12 49 26 W 1019,7 55 0 0,1
12.02.2020 14:00:00 4,0 -1,2 4,0 3,0 3,1 5,4 26 14 49 26 WSW 1019,9 51 0 0,2
12.02.2020 13:00:00 4,4 -2,0 3,9 3,2 3,0 5,4 25 14 54 29 WSW 1020,1 23 0 0,0
12.02.2020 12:00:00 4,5 -3,2 4,6 2,8 3,0 5,4 27 15 50 27 WSW 1020,4 49 2 0,0
12.02.2020 11:00:00 4,8 -3,0 5,7 2,1 3,0 5,4 26 14 49 26 WSW 1020,0 45 31 0,0
12.02.2020 10:00:00 3,3 -2,6 2,9 1,1 3,1 5,4 21 11 40 21 WSW 1020,5 48 0 0,0

tt = temperature
td = dewpoint
tt 5cm = temperature 5cm
tt -5cm = temperature -5cm
tt -20cm = temperature -20cm
tt -100cm = temperature -100cm
ff = wind speed
fx = gusts
dd = wind direction
ppp = reduced air pressure
vv = visibility
sd = sunshine duration
rr = precipitation

Next stations